[[{"header":{"parameterUnit":"m.s-1","parameterCategory":1,"la1":30.2991,"la2":30.254,"lo1":-89.0895,"lo2":-89.0444,"dy":0.0017,"dx":0.0017,"nx":28,"ny":28,"refTime":"2024-10-10T03:00:00:Z","depth":0,"parameterNumber":2,"parameterNumberName":"U-component_of_WINDS"},"data":[0,0,0,0,0,0,0,0,0,0,0,0,0,0,0,0,0,0,0,0,0,0,0,0,0,0,0,0,0,0,0,0,0,0,0,0,0,0,0,0,0,0,0,0,0,0,0,0,0,0,0,0,0,0,0,0,0,0,-1.6999,-1.7,0,-1.7062,-1.7063,-1.7063,-1.7004,-1.7002,-1.6999,-1.6997,-1.7065,-1.7069,-1.7073,0,0,0,0,0,0,0,0,0,0,0,0,0,-1.6831,-1.6835,-1.6999,-1.7,-1.7001,-1.7062,-1.7063,-1.7063,-1.7005,-1.7002,-1.6999,-1.6996,-1.7063,-1.7068,-1.7073,0,0,0,0,0,0,0,0,0,0,0,0,0,-1.69,-1.6836,-1.6999,-1.6979,-1.6977,-1.7062,-1.7063,-1.7064,-1.7005,-1.7002,-1.6998,-1.6995,-1.7062,-1.7068,-1.7074,-1.7182,0,0,-1.7092,-1.7095,0,0,0,0,0,0,0,0,-1.6896,-1.6906,-1.6981,-1.698,-1.6979,-1.7021,-1.7028,-1.7104,-1.7006,-1.6995,-1.6997,-1.6993,-1.7053,-1.706,-1.708,-1.7185,-1.7188,-1.7092,-1.7096,-1.7099,-1.71,0,0,0,0,0,0,0,-1.6892,-1.6903,-1.7024,-1.6982,-1.6981,-1.6967,-1.6973,-1.7042,-1.7043,-1.6995,-1.6991,-1.6999,-1.7052,-1.7074,-1.7081,-1.7189,-1.7092,-1.7098,-1.7101,-1.7104,-1.7387,-1.7391,0,0,0,0,0,0,-1.6889,-1.69,-1.7022,-1.7026,-1.6928,-1.6973,-1.698,-1.7012,-1.7042,-1.7044,-1.7002,-1.6996,-1.7065,-1.7074,-1.7083,-1.7213,-1.7099,-1.7104,-1.7108,-1.7383,-1.7388,-1.7392,0,0,0,0,0,0,-1.6885,-1.69,-1.702,-1.6962,-1.6976,-1.698,-1.7016,-1.7015,-1.7036,-1.7048,-1.7048,-1.7024,-1.7063,-1.7074,-1.7158,-1.7214,-1.7107,-1.7112,-1.7379,-1.7385,-1.739,-1.7473,0,0,0,0,0,0,-1.6881,-1.6899,-1.694,-1.6963,-1.6979,-1.7093,-1.7019,-1.7018,-1.7046,-1.7039,-1.7068,-1.707,-1.7061,-1.7149,-1.7164,-1.7221,-1.7117,-1.7374,-1.7381,-1.7388,-1.7466,-1.7481,-1.7495,0,0,0,0,0,-1.6875,-1.6962,-1.6943,-1.6958,-1.703,-1.7096,-1.7106,-1.7093,-1.7051,-1.7093,-1.71,-1.7069,-1.7205,-1.7158,-1.7174,-1.7234,-1.737,-1.7379,-1.7388,-1.7459,-1.7478,-1.7494,0,0,0,0,0,0,-1.6947,-1.6964,-1.6943,-1.704,-1.7067,-1.7086,-1.7139,-1.7114,-1.7154,-1.7146,-1.7129,-1.7136,-1.7225,-1.7237,-1.7184,-1.734,-1.7281,-1.7293,-1.733,-1.7348,-1.7362,-1.7359,-1.7122,0,0,0,0,0,-1.6974,-1.7025,-1.7038,-1.7122,-1.7136,-1.7135,-1.7164,-1.7151,-1.7179,-1.7191,-1.7204,-1.7233,-1.7282,-1.7315,-1.7361,-1.7466,-1.7472,-1.7515,-1.7529,-1.7541,-1.7553,-1.761,-1.763,-1.7421,-1.7421,-1.7421,0,0,-1.7031,-1.7046,-1.708,-1.7137,-1.7156,-1.7211,-1.7145,-1.7206,-1.7247,-1.72,-1.728,-1.729,-1.7321,-1.7416,-1.7458,-1.7429,-1.7611,-1.7552,-1.7562,-1.7567,-1.7621,-1.7641,-1.7659,-1.7427,-1.7426,-1.7425,0,0,-1.7163,-1.7179,-1.7251,-1.7271,-1.7301,-1.7299,-1.7316,-1.7339,-1.7344,-1.7423,-1.739,-1.7437,-1.7523,-1.7547,-1.757,-1.7709,-1.7682,-1.7724,-1.7801,-1.7857,-1.7874,-1.7888,-1.794,-1.7958,-1.7735,-1.7735,-1.7735,0,-1.723,-1.731,-1.7292,-1.7355,-1.7381,-1.7339,-1.7413,-1.7434,-1.7477,-1.7497,-1.7463,-1.7568,-1.7586,-1.7687,-1.772,-1.774,-1.776,-1.7722,-1.7872,-1.7887,-1.79,-1.7949,-1.7968,-1.774,-1.774,-1.7739,-1.7739,0,-1.7392,-1.7448,-1.7503,-1.7545,-1.7577,-1.7645,-1.7638,-1.7672,-1.7657,-1.7659,-1.774,-1.7759,-1.7809,-1.7831,-1.7817,-1.7929,-1.791,-1.7875,-1.7815,-1.7926,-1.7971,-1.799,-1.7748,-1.7746,-1.7744,-1.7743,0,0,-1.7574,-1.7603,-1.7624,-1.7643,-1.7672,-1.7715,-1.7781,-1.7828,-1.7859,-1.7889,-1.7945,-1.8017,-1.7984,-1.801,-1.7998,-1.8047,-1.8157,-1.8005,-1.8005,-1.8034,-1.8284,-1.8313,-1.8335,-1.8138,-1.8141,-1.8144,-1.8282,0,-1.7709,-1.7822,-1.7807,-1.7917,-1.7969,-1.7929,-1.7986,-1.8011,-1.8014,-1.8059,-1.8062,-1.8114,-1.8065,-1.8081,-1.8127,-1.8134,-1.8208,-1.8123,-1.8192,-1.8195,-1.8188,-1.8358,-1.8389,-1.8518,-1.83,-1.8303,-1.8305,0,-1.7881,-1.7917,-1.8032,-1.8052,-1.8073,-1.8125,-1.8167,-1.821,-1.8236,-1.8235,-1.8264,-1.8242,-1.8309,-1.8246,-1.8338,-1.8282,-1.8308,-1.8315,-1.832,-1.8328,-1.8259,-1.8373,-1.8559,-1.8579,-1.8332,-1.833,-1.8328,0,-1.8005,-1.8082,-1.8161,-1.8177,-1.8202,-1.824,-1.8252,-1.8275,-1.8304,-1.834,-1.8359,-1.8403,-1.8428,-1.8463,-1.8454,-1.8408,-1.8549,-1.8485,-1.8552,-1.8552,-1.8586,-1.8585,-1.8781,-1.8599,-1.8599,-1.8598,-1.8598,0,-1.8158,-1.8231,-1.8217,-1.8266,-1.8345,-1.8326,-1.8406,-1.8414,-1.8434,-1.8484,-1.8451,-1.8499,-1.8483,-1.8531,-1.8524,-1.8602,-1.8613,-1.8615,-1.8613,-1.862,-1.862,-1.8639,-1.8631,-1.8603,-1.8602,-1.8601,-1.86,0,-1.8312,-1.8305,-1.8388,-1.8404,-1.841,-1.8468,-1.8482,-1.8529,-1.8528,-1.8592,-1.8606,-1.8605,-1.8659,-1.8653,-1.8713,-1.8708,-1.8807,-1.8792,-1.8798,-1.8796,-1.8864,-1.8858,-1.9082,-1.9111,-1.8907,-1.8909,-1.8911,0,-1.8412,-1.8466,-1.8487,-1.8518,-1.8533,-1.8582,-1.8611,-1.8594,-1.8626,-1.866,-1.8702,-1.8752,-1.8792,-1.888,-1.8886,-1.8932,-1.892,-1.8995,-1.8927,-1.8932,-1.8924,-1.8922,-1.8928,-1.901,-1.9012,-1.9014,-1.9015,0,-1.859,-1.8583,-1.8626,-1.8668,-1.8703,-1.8735,-1.8764,-1.8791,-1.8776,-1.8814,-1.8868,-1.8898,-1.8959,-1.901,-1.9053,-1.9066,-1.904,-1.9036,-1.9054,-1.9063,-1.9065,-1.9067,-1.8837,-1.9032,-1.903,-1.9029,-1.9028,-1.9027,-1.8721,-1.8768,-1.879,-1.8839,-1.8858,-1.8885,-1.893,-1.8934,-1.8978,-1.9025,-1.9012,-1.9074,-1.9098,-1.9153,-1.917,-1.9219,-1.9192,-1.9218,-1.9225,-1.9232,-1.9241,-1.9055,-1.9226,-1.9226,-1.9225,-1.9225,-1.9225,0,-1.89,-1.8912,-1.8956,-1.8997,-1.9035,-1.9003,-1.9033,-1.9068,-1.9122,-1.9146,-1.9185,-1.9247,-1.9296,-1.9305,-1.9352,-1.9389,-1.9378,-1.9402,-1.94,-1.9404,-1.9262,-1.9242,-1.941,-1.941,-1.941,-1.941,-1.941,-1.941,-1.8998,-1.9075,-1.9071,-1.9158,-1.9169,-1.9228,-1.9248,-1.9274,-1.9293,-1.9363,-1.9403,-1.9408,-1.9426,-1.9473,-1.9517,-1.9518,-1.9538,-1.9568,-1.9565,-1.9433,-1.9414,-1.9397,-1.9378,-1.9572,-1.9572,-1.9703,-1.9705,-1.9706]},{"header":{"parameterUnit":"m.s-1","parameterCategory":1,"la1":30.2991,"la2":30.254,"lo1":-89.0895,"lo2":-89.0444,"dy":0.0017,"dx":0.0017,"nx":28,"ny":28,"refTime":"2024-10-10T03:00:00:Z","depth":0,"parameterNumber":3,"parameterNumberName":"V-component_of_WINDS"},"data":[0,0,0,0,0,0,0,0,0,0,0,0,0,0,0,0,0,0,0,0,0,0,0,0,0,0,0,0,0,0,0,0,0,0,0,0,0,0,0,0,0,0,0,0,0,0,0,0,0,0,0,0,0,0,0,0,0,0,-4.1925,-4.1925,0,-4.1975,-4.1975,-4.1976,-4.1903,-4.1901,-4.1898,-4.1896,-4.1944,-4.1948,-4.1951,0,0,0,0,0,0,0,0,0,0,0,0,0,-4.1763,-4.1766,-4.1924,-4.1925,-4.1926,-4.1974,-4.1975,-4.1976,-4.1904,-4.1901,-4.1898,-4.1895,-4.1943,-4.1947,-4.1952,0,0,0,0,0,0,0,0,0,0,0,0,0,-4.1825,-4.1767,-4.1924,-4.1896,-4.1894,-4.1974,-4.1975,-4.1976,-4.1904,-4.1901,-4.1897,-4.1893,-4.1942,-4.1947,-4.1952,-4.2062,0,0,-4.1969,-4.1971,0,0,0,0,0,0,0,0,-4.1821,-4.1831,-4.1899,-4.1898,-4.1896,-4.1929,-4.1936,-4.2005,-4.1905,-4.19,-4.1896,-4.1891,-4.1942,-4.1947,-4.1965,-4.2065,-4.2067,-4.197,-4.1973,-4.1975,-4.1977,0,0,0,0,0,0,0,-4.1817,-4.1828,-4.1944,-4.19,-4.1898,-4.1879,-4.1884,-4.1948,-4.1942,-4.19,-4.1895,-4.1902,-4.194,-4.196,-4.1965,-4.2067,-4.1969,-4.1974,-4.1978,-4.198,-4.2259,-4.2263,0,0,0,0,0,0,-4.1817,-4.1825,-4.1943,-4.1946,-4.1849,-4.1885,-4.189,-4.1922,-4.1941,-4.194,-4.1906,-4.1899,-4.1952,-4.1959,-4.1967,-4.2096,-4.1975,-4.198,-4.1983,-4.2255,-4.226,-4.2264,0,0,0,0,0,0,-4.1814,-4.1828,-4.1941,-4.1884,-4.1897,-4.1892,-4.1928,-4.1925,-4.1944,-4.1945,-4.1943,-4.1927,-4.1949,-4.1959,-4.2039,-4.2097,-4.1983,-4.1988,-4.225,-4.2256,-4.2262,-4.2357,0,0,0,0,0,0,-4.1809,-4.1827,-4.187,-4.1886,-4.19,-4.2014,-4.1932,-4.1929,-4.1954,-4.1946,-4.1964,-4.1964,-4.1947,-4.2031,-4.2045,-4.2103,-4.1992,-4.2245,-4.2253,-4.226,-4.2349,-4.2366,-4.238,0,0,0,0,0,-4.1804,-4.1895,-4.1873,-4.1887,-4.1954,-4.2017,-4.2025,-4.2005,-4.196,-4.2002,-4.2002,-4.1963,-4.2089,-4.204,-4.2054,-4.2115,-4.2241,-4.225,-4.2259,-4.2342,-4.2363,-4.238,0,0,0,0,0,0,-4.1885,-4.1896,-4.1872,-4.1971,-4.1994,-4.2005,-4.2058,-4.2028,-4.2064,-4.2054,-4.2027,-4.2031,-4.2117,-4.2124,-4.207,-4.2222,-4.2157,-4.217,-4.2215,-4.2234,-4.225,-4.2247,-4.1997,0,0,0,0,0,-4.1915,-4.1966,-4.1972,-4.2059,-4.2072,-4.2063,-4.209,-4.2072,-4.2094,-4.2103,-4.2109,-4.2131,-4.2175,-4.2205,-4.2246,-4.2349,-4.2352,-4.2398,-4.2414,-4.2427,-4.2438,-4.2492,-4.2512,-4.2295,-4.2294,-4.2294,0,0,-4.1976,-4.1988,-4.2022,-4.2075,-4.2091,-4.2144,-4.2071,-4.213,-4.2169,-4.2112,-4.2188,-4.2193,-4.2216,-4.2308,-4.2349,-4.2316,-4.2498,-4.2438,-4.2449,-4.2453,-4.2504,-4.2524,-4.2543,-4.2301,-4.23,-4.2299,0,0,-4.2115,-4.213,-4.2203,-4.222,-4.2245,-4.2239,-4.2256,-4.2272,-4.2273,-4.2349,-4.2308,-4.2352,-4.2429,-4.2447,-4.2466,-4.2611,-4.2576,-4.2624,-4.2707,-4.276,-4.2778,-4.2793,-4.2844,-4.2863,-4.2636,-4.2636,-4.2636,0,-4.2188,-4.2267,-4.2244,-4.2306,-4.233,-4.2282,-4.2355,-4.2372,-4.2409,-4.2426,-4.2389,-4.2485,-4.2496,-4.2592,-4.2627,-4.2644,-4.2663,-4.2623,-4.2777,-4.2792,-4.2806,-4.2854,-4.2874,-4.2642,-4.2641,-4.264,-4.264,0,-4.2355,-4.241,-4.2466,-4.2504,-4.2534,-4.2601,-4.2588,-4.2621,-4.2601,-4.2597,-4.2675,-4.2687,-4.2729,-4.275,-4.2731,-4.2843,-4.2822,-4.2782,-4.2716,-4.2833,-4.2878,-4.2896,-4.265,-4.2648,-4.2646,-4.2645,0,0,-4.2547,-4.2571,-4.2592,-4.2608,-4.2632,-4.2673,-4.2738,-4.278,-4.2808,-4.2835,-4.2888,-4.2953,-4.2916,-4.2938,-4.292,-4.2966,-4.308,-4.292,-4.292,-4.2949,-4.3203,-4.3233,-4.3255,-4.3057,-4.306,-4.3063,-4.3201,0,-4.2685,-4.2798,-4.2779,-4.2888,-4.2939,-4.2893,-4.2948,-4.2968,-4.2967,-4.3008,-4.3006,-4.3053,-4.3,-4.3013,-4.3057,-4.3057,-4.313,-4.3046,-4.3105,-4.3107,-4.3101,-4.3279,-4.3311,-4.3441,-4.3218,-4.3221,-4.3223,0,-4.2862,-4.2896,-4.3011,-4.3026,-4.3046,-4.3097,-4.3133,-4.3174,-4.3195,-4.319,-4.3214,-4.3187,-4.325,-4.3183,-4.3269,-4.3212,-4.3234,-4.3238,-4.3242,-4.3247,-4.3173,-4.3288,-4.3482,-4.3501,-4.3251,-4.3249,-4.3247,0,-4.2991,-4.3065,-4.3143,-4.3158,-4.3177,-4.3214,-4.3224,-4.3241,-4.3267,-4.3298,-4.3315,-4.3353,-4.3374,-4.3403,-4.3387,-4.3339,-4.3475,-4.3407,-4.3472,-4.3473,-4.3503,-4.3502,-4.3703,-4.3518,-4.3518,-4.3517,-4.3517,0,-4.3147,-4.3219,-4.3201,-4.3249,-4.3327,-4.3304,-4.3382,-4.3385,-4.3401,-4.3448,-4.341,-4.3454,-4.3429,-4.3472,-4.3459,-4.3531,-4.3541,-4.3538,-4.3534,-4.3542,-4.3542,-4.3556,-4.3547,-4.3522,-4.3521,-4.352,-4.3519,0,-4.3304,-4.3295,-4.3377,-4.3389,-4.3393,-4.3451,-4.346,-4.3504,-4.3499,-4.3559,-4.3571,-4.3564,-4.3612,-4.3598,-4.3649,-4.364,-4.3732,-4.3716,-4.3726,-4.3722,-4.3788,-4.3782,-4.4006,-4.4033,-4.383,-4.3832,-4.3834,0,-4.3405,-4.3459,-4.3477,-4.3506,-4.3519,-4.3566,-4.3593,-4.3572,-4.3601,-4.3628,-4.3669,-4.3713,-4.3748,-4.3826,-4.3824,-4.3863,-4.3847,-4.3923,-4.3853,-4.3859,-4.3848,-4.3845,-4.385,-4.3937,-4.3939,-4.3941,-4.3943,0,-4.3585,-4.3577,-4.3618,-4.3657,-4.369,-4.372,-4.3745,-4.3771,-4.3751,-4.3786,-4.3834,-4.3861,-4.3914,-4.3958,-4.3993,-4.4001,-4.3969,-4.3965,-4.3982,-4.3991,-4.3994,-4.3993,-4.3764,-4.396,-4.3958,-4.3957,-4.3956,-4.3955,-4.3717,-4.3763,-4.3782,-4.3828,-4.3846,-4.387,-4.3912,-4.3913,-4.3954,-4.3996,-4.398,-4.4036,-4.4053,-4.4098,-4.411,-4.4153,-4.4124,-4.4149,-4.4155,-4.4161,-4.417,-4.3987,-4.4159,-4.4158,-4.4158,-4.4157,-4.4157,0,-4.3894,-4.3905,-4.3947,-4.3985,-4.4021,-4.3988,-4.4014,-4.4046,-4.4096,-4.4117,-4.4151,-4.4207,-4.4249,-4.4251,-4.429,-4.4324,-4.431,-4.4335,-4.4332,-4.4334,-4.4194,-4.4175,-4.4345,-4.4345,-4.4345,-4.4345,-4.4345,-4.4345,-4.3991,-4.4067,-4.4062,-4.4145,-4.4154,-4.4209,-4.4227,-4.4249,-4.4265,-4.4329,-4.4365,-4.4366,-4.4378,-4.4418,-4.4455,-4.4454,-4.447,-4.4501,-4.4494,-4.4363,-4.4344,-4.4326,-4.4309,-4.4504,-4.4505,-4.4631,-4.4633,-4.4634]}]]